AirNav   Phillips 66 Aviation Fuel
 
 974 users online  

AL92 Hawk Field Airport
Harpersville, Alabama, USA

GOING TO HARPERSVILLE?


FAA INFORMATION EFFECTIVE 23 MAY 2019

Location

FAA Identifier: AL92
Lat/Long: 33-18-26.4020N / 086-24-12.9230W
33-18.440033N / 086-24.215383W
33.3073339 / -86.4035897
(estimated)
Elevation: 420 ft. / 128 m (estimated)
Variation: 01W (1990)
From city: 2 miles S of HARPERSVILLE, AL
Time zone: UTC -5 (UTC -6 during Standard Time)
Zip code: 35078

Airport Operations

Airport use: Private use. Permission required prior to landing
Activation date: 10/1991
Control tower: no
ARTCC: ATLANTA CENTER
FSS: ANNISTON FLIGHT SERVICE STATION
Attendance: UNATNDD
Wind indicator: yes
Segmented circle: no

Airport Communications

WX AWOS-3PT at SCD (10 nm SE): 119.125 (256-249-2620)
WX AWOS-3P at PLR (17 nm NE): 119.625 ((205) 884-4359)

Nearby radio navigation aids

VOR radial/distance  VOR name  Freq  Var
TDGr226/24.2TALLADEGA VOR/DME108.8002E
VUZr129/33.0VULCAN VORTAC114.4002E

Airport Services

Runway Information

Runway 11/29

Dimensions: 3400 x 75 ft. / 1036 x 23 m
Surface: turf
RUNWAY 11  RUNWAY 29
Traffic pattern: leftleft

Airport Ownership and Management from official FAA records

Ownership: Privately-owned
Owner: WILLIAM G GAYLE
392 SUN VALLEY ROAD
HARPERSVILLE, AL 35078
Phone 205-672-3103
Manager: WILLIAM G GAYLE
392 SUN VALLEY ROAD
HARPERSVILLE, AL 35078
Phone 205-672-3103

Airport Operational Statistics

Aircraft based on the field: 2
Single engine airplanes: 2
    

Instrument Procedures

There are no published instrument procedures at AL92.

Some nearby airports with instrument procedures:

KSCD - Merkel Field Sylacauga Municipal Airport (10 nm SE)
KPLR - St Clair County Airport (17 nm NE)
KEET - Shelby County Airport (21 nm W)
KBHM - Birmingham-Shuttlesworth International Airport (23 nm NW)
KASN - Talladega Municipal Airport (24 nm NE)
 
Loc | Ops | Rwys | IFR | FBO | Links
Com | Nav | Svcs | Stats | Notes
Area around AL92 (Hawk Field Airport)
 
Road maps at: MapQuest Bing Google
 
Aerial photo
No photo
 
Sectional chart

 
Airport distance calculator
Flying to Hawk Field Airport? Find the distance to fly.

From to AL92

Sunrise and sunset
Times for 16-Jun-2019
 Local
(UTC-5)
 Zulu
(UTC)
Morning civil twilight05:0810:08
Sunrise05:3710:37
Sunset19:5600:56
Evening civil twilight20:2501:25

Current date and time
Zulu (UTC)  16-Jun-2019 19:41:32
Local (UTC-5)  16-Jun-2019 14:41:32
 
METAR
KSCD 
10nm SE 
161915Z AUTO 22003KT 10SM BKN046 BKN080 BKN090 32/19 A3001 RMK AO2 T03180188
KPLR 
17nm NE 
161915Z AUTO 22008KT 10SM SCT040 32/24 A2999 RMK A01
TAF
KEET 
20nm W 
161740Z 1618/1718 21006KT P6SM SCT035 BKN045 BKN250 FM161900 21007KT P6SM VCSH BKN045 BKN250 FM170000 VRB02KT P6SM VCSH BKN050 BKN250 FM170500 00000KT P6SM BKN250
KBHM 
23nm NW 
161740Z 1618/1718 24006KT P6SM FEW035 SCT250 FM161900 23008KT P6SM VCSH BKN040 BKN250 FM170000 18005KT P6SM VCSH BKN050 BKN250 FM170500 VRB03KT P6SM BKN250
KASN 
24nm NE 
161740Z 1618/1718 23008KT P6SM SCT035 SCT250 FM170000 VRB02KT P6SM SCT250
NOTAMs
Click for the latest NOTAMs
NOTAMs are issued by the DoD/FAA and will open in a separate window not controlled by AirNav.

 

 
 

Would you like to see your business listed on this page?

 If your business provides an interesting product or service to pilots, flight crews, aircraft, or users of the Hawk Field Airport, you should consider listing it here.  To start the listing process, click on the button below
 
Add a business
 

Other Pages about Hawk Field Airport

Update a link
 
Copyright © AirNav, LLC. All rights reserved. Privacy Policy  Contact